Regional Weather Roundup
Issued by NWS

Home | Current Version | Previous Version | Text Only | Print | Product List | Glossary On
Versions: 1 2 3 4 5 6 7 8 9 10 11 12 13 14 15 16 17 18 19 20 21 22 23 24 25 26 27 28 29 30 31 32 33 34 35 36 37 38 39 40 41 42 43 44 45 46 47 48 49 50
000
ASUS43 KDMX 201806
RWRIA

WEATHER ROUNDUP FOR IOWA
NATIONAL WEATHER SERVICE DES MOINES IA
100 PM CDT FRI APR 20 2018

NOTE: "FAIR" INDICATES FEW OR NO CLOUDS BELOW 12,000 FEET WITH NO
SIGNIFICANT WEATHER AND/OR OBSTRUCTIONS TO VISIBILITY.

* - THESE STATIONS ARE NOT NWS STATIONS...THUS NOT UNDER NWS
QUALITY CONTROL.  THEY ALSO DO NOT REPORT WEATHER SUCH
AS PRECIPITATION OR FOG.

IAZ001>003-012>014-020>022-031>034-043>046-201900-
   NORTHWEST IOWA

CITY           SKY/WX    TMP DP  RH WIND       PRES   REMARKS
CARROLL *      CLOUDY    54  34  47 S7G13     30.42F
CHEROKEE *     CLOUDY    46  37  71 E7        30.42F
DENISON *      PTSUNNY   54  32  43 SE10G16   30.42F
LE MARS *      CLOUDY    52  34  50 SE8       30.40F
ORANGE CITY *  CLOUDY    45  36  70 E5        30.42S
SHELDON *      CLOUDY    45  36  70 SE8       30.41S
SIOUX CITY     CLOUDY    52  33  48 S13G20    30.40F
6HR MIN TEMP:  31; 6HR MAX TEMP:  52;

SPENCER        CLOUDY    41  29  62 SE9       30.44F
6HR MIN TEMP:  22; 6HR MAX TEMP:  41;

STORM LAKE *   CLOUDY    46  37  71 E8        30.42F
$$

IAZ055>058-069>071-079>083-090>094-201900-
   SOUTHWEST IOWA

CITY           SKY/WX    TMP DP  RH WIND       PRES   REMARKS
ATLANTIC *     CLOUDY    55  28  35 SE10      30.40F
AUDUBON *      CLOUDY    55  28  35 SE7       30.43S
CLARINDA *     PTSUNNY   57  27  30 SE12G18   30.43F
COUNCIL BLFS * CLOUDY    55  32  41 SE15G24   30.38F
CRESTON *      PTSUNNY   55  27  33 SE14      30.42F
HARLAN  *      CLOUDY    55  30  38 S14       30.43F
LAMONI         CLOUDY    56  27  32 SE9       30.42F
6HR MIN TEMP:  34; 6HR MAX TEMP:  56;

RED OAK *      CLOUDY    57  30  35 S13G21    30.40F
SHENANDOAH *   PTSUNNY   59  28  31 SE13G25   30.40F
$$

IAZ047>049-059>061-072>074-084-201900-
   CENTRAL IOWA

CITY           SKY/WX    TMP DP  RH WIND       PRES   REMARKS
AMES           CLOUDY    56  30  37 MISG      30.44F
6HR MIN TEMP:  29; 6HR MAX TEMP:  56;

ANKENY *       CLOUDY    55  27  33 SE6       30.45F
BOONE *        MOSUNNY   54  32  43 SE8G15    30.44S
CHARITON *     MOSUNNY   57  28  33 SE10      30.43F
DES MOINES     CLOUDY    56  29  35 S9        30.44F
6HR MIN TEMP:  34; 6HR MAX TEMP:  57;

GRINNELL*      CLOUDY    55  26  33 S5        30.46F
KNOXVILLE *    PTSUNNY   57  27  30 S10       30.43F
MARSHALLTOWN   CLOUDY    55  29  36 S7        30.45F
6HR MIN TEMP:  28; 6HR MAX TEMP:  55;

NEWTON *       CLOUDY    55  27  33 SE8G16    30.45F
PELLA *        MOSUNNY   57  26  29 SE10      30.46F
PERRY *        FAIR      53  24  32 SE10      30.44F
$$

IAZ004>006-015-016-023>025-035-036-201900-
   NORTH CENTRAL IOWA

CITY           SKY/WX    TMP DP  RH WIND       PRES   REMARKS
ALGONA *       MOSUNNY   43  28  56 SE7       30.46F
CLARION *      SUNNY     46  37  71 E9        30.46F
ESTHERVILLE    MOSUNNY   35  27  72 E7        30.46F WCI  29
6HR MIN TEMP:  16; 6HR MAX TEMP:  35;

FORT DODGE *   MOSUNNY   54  34  46 SW6       30.45F
MASON CITY     CLOUDY    40  27  59 SE5       30.50S
6HR MIN TEMP:  18; 6HR MAX TEMP:  42;

FOREST CITY *  FAIR      41  28  60 SE7       30.48F
WEBSTER CITY * CLOUDY    54  32  43 VRB5      30.43F
IOWA FALLS *   FAIR      54  31  42 E3        30.47F
$$

IAZ007>011-017>019-026>030-037>042-050>054-066-201900-
   NORTHEAST IOWA

CITY           SKY/WX    TMP DP  RH WIND       PRES   REMARKS
CEDAR RAPIDS   FAIR      56  26  31 E3        30.47F
6HR MIN TEMP:  28; 6HR MAX TEMP:  57;

CHARLES CITY * FAIR      46  28  49 S3        30.49F
CLINTON *      FAIR      56  22  26 VRB5      30.50F
DECORAH *      FAIR      45  23  42 CALM      30.49S
DUBUQUE        FAIR      52  28  39 CALM      30.49F
6HR MIN TEMP:  30; 6HR MAX TEMP:  53;

MONTICELLO *   FAIR      54  27  35 VRB6      30.48F
OELWEIN *      FAIR      50  30  46 NW6       30.48F
$$

IAZ064-065-067-068-078-201900-
   EAST CENTRAL IOWA

CITY           SKY/WX    TMP DP  RH WIND       PRES   REMARKS
DAVENPORT      FAIR      56  21  25 VRB6      30.51F
6HR MIN TEMP:  28; 6HR MAX TEMP:  56;

IOWA CITY      FAIR      56  26  31 NW3       30.49F
6HR MIN TEMP:  28; 6HR MAX TEMP:  57;

MT. PLEASANT * CLOUDY    57  21  24 E12       30.47F
MUSCATINE *    FAIR      57  19  23 VRB6G12   30.49F
QUAD CITIES    FAIR      58  19  22 S10       30.48F
6HR MIN TEMP:  26; 6HR MAX TEMP:  58;

$$

IAZ062-063-075>077-085>089-095>099-201900-
   SOUTHEAST IOWA

CITY           SKY/WX    TMP DP  RH WIND       PRES   REMARKS
BURLINGTON     CLOUDY    56  21  25 S9        30.47F
6HR MIN TEMP:  34; 6HR MAX TEMP:  57;

FAIRFIELD *    MOSUNNY   55  23  28 SE8       30.46F
FORT MADISON * CLOUDY    57  25  28 E5        30.47F
KEOKUK *       CLOUDY    57  21  24 SE12      30.46F
OSKALOOSA *    FAIR      58  26  29 SE12      30.46F
CENTERVILLE *    N/A     57  27  30 SE9G17    30.45F
OTTUMWA        CLOUDY    56  25  30 VRB3      30.45F
6HR MIN TEMP:  30; 6HR MAX TEMP:  57;

WASHINGTON *   MOSUNNY   57  25  28 VRB7G13   30.48F
$$

ABBREVIATIONS USED IN REMARKS
   TC - TEMPERATURES IN CELSIUS
  WCI - WIND CHILL INDEX
   HX - HEAT INDEX
  VSB - VISIBILITY
$$




USA.gov is the U.S. government's official web portal to all federal, state and local government web resources and services.